Regional Weather Roundup
Issued by NWS

Home | Current Version | Previous Version | Graphics & Text | Print | Product List | Glossary On
Versions: 1 2 3 4 5 6 7 8 9 10 11 12 13 14 15 16 17 18 19 20 21 22 23 24 25 26 27 28 29 30 31 32 33 34 35 36 37 38 39 40 41 42 43 44 45 46 47 48 49 50
000
ASUS43 KFSD 240102
RWRSD

WEATHER ROUNDUP FOR SOUTH DAKOTA
NATIONAL WEATHER SERVICE SIOUX FALLS SD
700 PM CST FRI FEB 23 2018

NOTE: "FAIR" INDICATES FEW OR NO CLOUDS BELOW 12,000 FEET WITH NO
SIGNIFICANT WEATHER AND/OR OBSTRUCTIONS TO VISIBILITY.


SDZ001>005-009-010-012>017-240200-
NORTHWEST AND NORTH CENTRAL SOUTH DAKOTA

CITY           SKY/WX    TMP DP  RH WIND       PRES   REMARKS
BUFFALO          N/A      4  -3  73 SE7       29.99F WCI  -8
FAITH            N/A      2  -2  83 S17       30.13S WCI -18
MOBRIDGE       PTCLDY     4  -1  80 SE9       30.20R WCI -10
$$

SDZ012>016-024>037-041>051-057-063-072>074-240200-
SOUTHWEST AND SOUTH CENTRAL SOUTH DAKOTA

CITY           SKY/WX    TMP DP  RH WIND       PRES   REMARKS
RAPID CTY ARPT CLEAR     11   2  67 E9        30.07F WCI  -2
PIERRE         CLOUDY     5   1  83 E3        30.24
CUSTER         PTCLDY    17   0  47 CALM      29.95S
ELLSWORTH AFB  PTCLDY    15   3  58 S13       30.04F WCI   1
PHILIP         MOCLDY     5   1  83 CALM      30.18F
PINE RIDGE     PTCLDY    16   8  71 CALM      30.09F
SPEARFISH        N/A     12   5  73 CALM      29.99S
WINNER         FAIR      13   7  77 E6        30.23F WCI   4
$$

SDZ004>011-016>023-039-040-240200-
NORTHEAST SOUTH DAKOTA

CITY           SKY/WX    TMP DP  RH WIND       PRES   REMARKS
ABERDEEN       MOCLDY    -1  -3  91 SW7       30.29R WCI -14
WATERTOWN      CLOUDY     6   4  91 SW5       30.26R WCI  -3
BROOKINGS      CLOUDY    16  13  88 W9        30.29R WCI   4
SISSETON         N/A      8   3  80 W3        30.28R
$$

SDZ017-020-022-023-036>040-048>070-240200-
SOUTHEAST SOUTH DAKOTA

CITY           SKY/WX    TMP DP  RH WIND       PRES   REMARKS
SIOUX FALLS    CLOUDY    18  16  92 NW5       30.30S WCI  11
HURON          MOCLDY    12   8  84 SW6       30.31R WCI   3
CHAMBERLAIN    MOCLDY     7   4  87 CALM      30.27F
MITCHELL       CLOUDY    14  10  84 W3        30.32S
YANKTON        CLOUDY    13  11  92 N5        30.30S WCI   5
$$

ABBREVIATIONS USED IN REMARKS
   TC - TEMPERATURE IN CELSIUS
  WCI - WIND CHILL INDEX
   HX - HEAT INDEX
  VSB - VISIBILITY




USA.gov is the U.S. government's official web portal to all federal, state and local government web resources and services.